Worcester, MA

5:55 PM EDT on August 24, 2016 (GMT -0400)
Worcester Regional

Weather History for KORH - January, 2013

Change the Weather History Date:

Friday, January 4, 2013

  Actual Average Record
Temperature  
Mean Temperature 27 °F 25 °F  
Max Temperature 33 °F 32 °F 60 °F (1950)
Min Temperature 20 °F 17 °F -8 °F (1981)
Degree Days  
Heating Degree Days 38 40  
Month to date heating degree days 180 160  
Since 1 July heating degree days 2395 2664  
Cooling Degree Days 0 0  
Month to date cooling degree days 0 0  
Year to date cooling degree days 0 0  
Moisture  
Dew Point 17 °F    
Average Humidity 69    
Maximum Humidity 81    
Minimum Humidity 56    
Precipitation  
Precipitation 0.00 in 0.11 in 1.95 in (1982)
Month to date precipitation T 0.44  
Year to date precipitation T 0.44  
Sea Level Pressure  
Sea Level Pressure 29.89 in    
Wind  
Wind Speed 15 mph (WSW)    
Max Wind Speed 26 mph    
Max Gust Speed 33 mph    
Visibility 10 miles    
Events      
T = Trace of Precipitation, MM = Missing Value Source: NWS Daily Summary

Daily Weather History Graph

Daily Weather History Graph

Search for Another Location

Airport or City:

Trip Planner

Search our weather history database for the weather conditions in past years. The results will help you decide how hot, cold, wet, or windy it might be!

Date:

Astronomy

Jan. 04, 2013 Rise Set
Actual Time 7:16 AM EST 4:28 PM EST
Civil Twilight 6:44 AM EST 5:00 PM EST
Nautical Twilight 6:09 AM EST 5:35 PM EST
Astronomical Twilight 5:35 AM EST 6:09 PM EST
Moon No Moon Rise 10:48 AM EST (1/4)
Length of Visible Light 10h 15m
Length of Day
9h 12m
Waning Gibbous, 55% of the Moon is Illuminated
Jan 4
Waning Gibbous
Jan 4
Last Quarter
Jan 11
New
Jan 18
First Quarter
Jan 26
Full

Hourly Weather History & Observations

Time (EST) Temp. Windchill Dew Point Humidity Pressure Visibility Wind Dir Wind Speed Gust Speed Precip Events Conditions
12:54 AM 21.0 °F 8.6 °F 10.9 °F 65% 29.96 in 10.0 mi West 12.7 mph - N/A   Overcast
1:54 AM 19.9 °F 6.7 °F 10.9 °F 68% 29.96 in 10.0 mi West 13.8 mph - N/A   Mostly Cloudy
2:54 AM 19.9 °F 6.2 °F 12.0 °F 71% 29.96 in 10.0 mi West 15.0 mph - N/A   Clear
3:54 AM 21.0 °F 7.1 °F 12.9 °F 71% 29.94 in 10.0 mi West 16.1 mph - N/A   Clear
4:54 AM 21.0 °F 8.6 °F 14.0 °F 74% 29.95 in 10.0 mi West 12.7 mph - N/A   Clear
5:54 AM 21.0 °F 8.6 °F 14.0 °F 74% 29.96 in 10.0 mi West 12.7 mph - N/A   Partly Cloudy
6:54 AM 21.0 °F 10.6 °F 15.1 °F 78% 29.96 in 10.0 mi WSW 9.2 mph - N/A   Clear
7:54 AM 23.0 °F 11.1 °F 17.1 °F 78% 29.97 in 10.0 mi WSW 12.7 mph - N/A   Mostly Cloudy
8:54 AM 26.1 °F 14.5 °F 17.1 °F 69% 29.96 in 10.0 mi WSW 13.8 mph - N/A   Scattered Clouds
9:54 AM 28.9 °F 17.7 °F 17.1 °F 61% 29.95 in 10.0 mi WSW 15.0 mph - N/A   Clear
10:54 AM 30.0 °F 17.5 °F 18.0 °F 61% 29.92 in 10.0 mi WSW 19.6 mph 26.5 mph N/A   Partly Cloudy
11:54 AM 32.0 °F 18.1 °F 19.0 °F 59% 29.87 in 10.0 mi WSW 27.6 mph 32.2 mph N/A   Clear
12:54 PM 33.1 °F 21.5 °F 19.9 °F 59% 29.83 in 10.0 mi SW 19.6 mph 26.5 mph N/A   Clear
1:54 PM 32.0 °F 18.9 °F 21.0 °F 64% 29.83 in 10.0 mi WSW 24.2 mph 32.2 mph N/A   Partly Cloudy
2:54 PM 33.1 °F 22.2 °F 21.0 °F 61% 29.82 in 10.0 mi WSW 17.3 mph 23.0 mph N/A   Overcast
3:54 PM 33.1 °F 22.2 °F 19.9 °F 59% 29.83 in 10.0 mi WSW 17.3 mph 24.2 mph N/A   Clear
4:54 PM 32.0 °F 22.1 °F 19.9 °F 61% 29.82 in 10.0 mi WSW 13.8 mph - N/A   Clear
5:54 PM 32.0 °F 22.5 °F 19.9 °F 61% 29.83 in 10.0 mi WSW 12.7 mph - N/A   Clear
6:54 PM 30.9 °F 21.2 °F 18.0 °F 59% 29.85 in 10.0 mi WSW 12.7 mph - N/A   Clear
7:54 PM 30.0 °F 19.1 °F 18.0 °F 61% 29.84 in 10.0 mi WSW 15.0 mph 23.0 mph N/A   Clear
8:54 PM 28.9 °F 18.2 °F 18.0 °F 64% 29.84 in 10.0 mi WSW 13.8 mph - N/A   Clear
9:54 PM 28.9 °F 19.2 °F 17.1 °F 61% 29.84 in 10.0 mi West 11.5 mph - N/A   Clear
10:54 PM 28.0 °F 18.6 °F 17.1 °F 63% 29.85 in 10.0 mi West 10.4 mph - N/A   Scattered Clouds
11:54 PM 28.9 °F 18.6 °F 17.1 °F 61% 29.85 in 10.0 mi West 12.7 mph - N/A   Clear